548  
ASUS41 KBGM 251310  
RWRBGM  
 
REGIONAL WEATHER ROUNDUP  
NATIONAL WEATHER SERVICE BINGHAMTON NY  
900 AM EDT MON OCT 25 2021  
 
NOTE: "FAIR" INDICATES FEW OR NO CLOUDS BELOW 12,000 FEET WITH NO  
SIGNIFICANT WEATHER AND/OR S TO VISIBILITY
.  
 
* = STATION(S) THAT DOES NOT REPORT PRECIPITATION, SUCH AS RAIN,  
SNOW, ETC, ALSO NO THUNDER OR FOG.
 
 
NYZ009-015>018-022>025-036-037-044>046-055>057-062-251400   
..CENTRAL NEW YORK
 
 
 
CITY SKY/WX TMP DP RH WIND PRES REMARKS
 
BINGHAMTON SUNNY 54 52 93 S9 29.88R  
CORTLAND CLOUDY 54 52 94 CALM 29.87S  
DANSVILLE CLOUDY 51 49 92 NW5 29.85R  
ELMIRA FOG 51 50 96 SW3 29.86R VSB<1/4  
ENDICOTT FAIR 52 52 100 CALM 29.88 FOG  
ITHACA SUNNY 55 52 89 S9 29.87R  
HAMILTON CLOUDY N/A N/A N/A SE5 29.89  
MONTICELLO CLOUDY 51 51 100 SE5 29.97F FOG  
NORWICH FAIR 52 52 100 CALM 29.92  
ONEONTA FAIR 52 52 100 CALM 29.91  
PENN YAN CLOUDY 52 50 93 VRB5 29.85S  
ROME CLOUDY 50 49 96 E7 29.92S  
SENECA FALLS CLOUDY 48 48 100 N6 29.87  
SIDNEY FAIR 55 52 88 SW5 29.90  
SKANEATELES CLOUDY 52 52 100 CALM 29.85F  
SYRACUSE CLOUDY 50 50 100 E7 29.87S  

 
 
PAZ038>040-043-044-047-048-072-251400   
..NORTHEAST PENNSYLVANIA
 
 
 
CITY SKY/WX TMP DP RH WIND PRES REMARKS
 
HAZLETON PTSUNNY 55 54 94 CALM 29.98F FOG  
SCRANTON MOSUNNY 53 51 93 CALM 29.94S FOG  
TOWANDA SUNNY 57 55 94 E5 29.92R  

 

 
KEY  
WCI = WIND CHILL INDEX  
VSB = VISIBILITY  
HX = HEAT INDEX  

 
 
 
CLICK HERE TO GO TO PREVIOUS BULLETINS.

The Nexlab NY Page
The Nexlab PA Page Main Text Page